Weather History for West Palm Beach, FL

Change the Weather History Date:

Friday, November 5, 2010

  Actual Average Record
Temperature  
Mean Temperature 63 °F 74 °F  
Max Temperature 71 °F 82 °F 91 °F (1992)
Min Temperature 54 °F 67 °F 45 °F (1927)
Degree Days  
Heating Degree Days 2 0  
Month to date heating degree days 2 0  
Since 1 July heating degree days 2 1  
Cooling Degree Days 0 10  
Month to date cooling degree days 60 50  
Year to date cooling degree days 3828 3671  
Growing Degree Days 13 (Base 50)    
Moisture  
Dew Point 50 °F    
Average Humidity 60    
Maximum Humidity 90    
Minimum Humidity 30    
Precipitation  
Precipitation 0.00 in 0.17 in 3.94 in (1981)
Month to date precipitation 0.97 0.86  
Year to date precipitation 51.68 55.06  
Snow  
Snow 0.00 in - - ()
Month to date snowfall 0.0  
Since 1 July snowfall 0.0  
Since 1 September snowfall 0.0  
Snow Depth 0.00 in    
Sea Level Pressure  
Sea Level Pressure 29.81 in    
Wind  
Wind Speed 13 mph (NW)    
Max Wind Speed 26 mph    
Max Gust Speed 33 mph    
Visibility 10 miles    
Events      
T = Trace of Precipitation, MM = Missing Value Source: NWS Daily Summary

Daily Weather History Graph

Daily Weather History Graph

Search for Another Location

Airport:

Trip Planner

Search our weather history database for the weather conditions in past years. The results will help you decide how hot, cold, wet, or windy it might be!

Date:

Astronomy

Nov. 05, 2010 Rise Set
Actual Time 7:32 AM EDT 6:35 PM EDT
Civil Twilight 7:08 AM EDT 6:59 PM EDT
Nautical Twilight 6:40 AM EDT 7:26 PM EDT
Astronomical Twilight 6:13 AM EDT 7:54 PM EDT
Moon 6:52 AM EDT (11/5) 6:02 PM EDT (11/5)
Length of Visible Light 11h 50m
Length of Day
11h 02m
Waning Crescent, 0% of the Moon is Illuminated
Nov 5
Waning Crescent
Nov 6
New
Nov 13
First Quarter
Nov 21
Full
Nov 28
Last Quarter

Hourly Weather History & Observations

Time (EDT) Temp. Dew Point Humidity Pressure Visibility Wind Dir Wind Speed Gust Speed Precip Events Conditions
12:53 AM 71.1 °F 68.0 °F 90% 29.67 in 10.0 mi SW 8.1 mph - 0.01 in   Overcast
1:53 AM 70.0 °F 66.0 °F 87% 29.66 in 10.0 mi SW 6.9 mph - N/A   Mostly Cloudy
2:53 AM 70.0 °F 66.0 °F 87% 29.65 in 10.0 mi SW 5.8 mph - N/A   Scattered Clouds
3:53 AM 69.1 °F 66.9 °F 93% 29.64 in 10.0 mi SW 4.6 mph - N/A   Scattered Clouds
4:53 AM 69.1 °F 66.9 °F 93% 29.64 in 10.0 mi West 3.5 mph - N/A   Partly Cloudy
5:53 AM 70.0 °F 66.9 °F 90% 29.67 in 10.0 mi West 15.0 mph 20.7 mph N/A   Scattered Clouds
6:00 AM 69.8 °F 66.2 °F 88% 29.67 in 10.0 mi NW 23.0 mph 26.5 mph N/A   Mostly Cloudy
6:30 AM 62.6 °F 59.0 °F 88% 29.70 in 10.0 mi NW 19.6 mph - N/A   Overcast
6:53 AM 63.0 °F 57.9 °F 84% 29.71 in 10.0 mi NW 18.4 mph 25.3 mph N/A   Mostly Cloudy
7:53 AM 62.1 °F 53.1 °F 72% 29.75 in 10.0 mi NNW 13.8 mph - N/A   Mostly Cloudy
8:02 AM 62.6 °F 53.6 °F 72% 29.76 in 10.0 mi NNW 10.4 mph - N/A   Scattered Clouds
8:53 AM 62.1 °F 46.9 °F 58% 29.79 in 10.0 mi NNW 18.4 mph - N/A   Partly Cloudy
9:53 AM 64.0 °F 48.0 °F 56% 29.84 in 10.0 mi NNW 20.7 mph 28.8 mph N/A   Scattered Clouds
10:53 AM 66.9 °F 44.1 °F 44% 29.85 in 10.0 mi NNW 21.9 mph 28.8 mph N/A   Partly Cloudy
11:53 AM 69.1 °F 45.0 °F 42% 29.86 in 10.0 mi NW 20.7 mph 28.8 mph N/A   Partly Cloudy
12:53 PM 70.0 °F 44.1 °F 39% 29.86 in 10.0 mi NW 20.7 mph 28.8 mph N/A   Partly Cloudy
1:53 PM 70.0 °F 42.1 °F 36% 29.85 in 10.0 mi NNW 20.7 mph 27.6 mph N/A   Partly Cloudy
2:53 PM 71.1 °F 39.9 °F 32% 29.84 in 10.0 mi NNW 19.6 mph 28.8 mph N/A   Partly Cloudy
3:53 PM 70.0 °F 39.0 °F 32% 29.85 in 10.0 mi NNW 18.4 mph 25.3 mph N/A   Partly Cloudy
4:53 PM 68.0 °F 35.1 °F 30% 29.86 in 10.0 mi NW 18.4 mph 26.5 mph N/A   Partly Cloudy
5:53 PM 66.0 °F 35.1 °F 32% 29.88 in 10.0 mi NW 16.1 mph - N/A   Partly Cloudy
6:53 PM 62.1 °F 35.1 °F 37% 29.93 in 10.0 mi NNW 11.5 mph - N/A   Partly Cloudy
7:53 PM 59.0 °F 37.9 °F 46% 29.96 in 10.0 mi NNW 6.9 mph - N/A   Partly Cloudy
8:53 PM 57.9 °F 39.0 °F 49% 29.99 in 10.0 mi NNW 5.8 mph - N/A   Clear
9:53 PM 57.9 °F 39.9 °F 51% 30.02 in 10.0 mi NNW 3.5 mph - N/A   Clear
10:53 PM 55.0 °F 42.1 °F 62% 30.04 in 10.0 mi NW 4.6 mph - N/A   Clear
11:53 PM 55.9 °F 41.0 °F 57% 30.05 in 10.0 mi North 5.8 mph - N/A   Clear